Location: Boleita
(10.4833°N, 66.8167°W)
Time: 02:03:58
(UTC+00:00)

Cosmos 1939 Rocket - Pass Details

Date: 08 November 2025
Orbit: 491 x 528 km, 97.5° (Epoch: 09 December)

Event Time Altitude Azimuth Distance (km) Brightness Sun altitude
Exits shadow 08:42:26 46° 171° (S) 699 3.4 -24.0°
Drops below altitude 10° 08:45:12 10° 186° (S) 1,740 5.4 -23.4°
Sets 08:47:17 0° 188° (S) 2,620 6.4 -22.9°
